Погода в Лудзе

Латвия     56°32′35″N   27°42′47″E
темп.,
°C
ветер,
м/с
пор.,
м/с
влажн.,
%
обл.,
%
осадки,
мм/ч
давл.,
гПа
погр.,
м
22 мая, вс
вс2200:00+8всв31297100 1.1 1004562
03:00+6св3109778 1.1 1005283
06:00+5св410979 0.0 1006302
09:00+9всв477455 0.0 1007522
12:00+14св564397 0.0 10081840
15:00+14св4539100 0.0 10081982
18:00+14ссв354477 0.0 10091951
21:00+8св2268100 0.0 101019
23 мая, пн
пн2300:00+5в1167100 0.0 101110
03:00+4св1168100 0.0 101310
06:00+3св127332 0.0 101454
09:00+9ссв23515 0.0 1014567
12:00+13с35415 0.0 10131395
15:00+16с464315 0.0 10131827
18:00+16с254539 0.0 10121822
21:00+10сз11725 0.0 101210
24 мая, вт
вт2400:00+8зсз22820 0.0 101331
03:00+6зсз22835 0.0 101438
06:00+7зсз24810 0.0 101487
09:00+14сз24580 0.0 1014437
12:00+18сз34440 0.0 10131523
15:00+19зсз34414 0.0 10131998
18:00+19з33464 0.0 10131172
21:00+13зюз22675 0.0 101325
25 мая, ср
ср2500:00+10з22752 0.0 101524
03:00+8юз118524 0.0 101510
06:00+10ююз118028 0.0 101528
09:00+16юз235873 0.0 1015519
12:00+19зюз3442100 0.0 10141954
15:00+19з4448100 0.0 10131689
18:00+13юз2671100 0.0 1013180
21:00+12ю2675100 0.0 1011138
26 мая, чт
чт2600:00+12ююв3876100 0.0 1008215
03:00+13ююв31080100 0.0 1006330
06:00+10з51197100 5.7 1005594
09:00+10зсз51294100 10.2 1005955
12:00+14з697720 0.5 10051108
15:00+15з597856 2.2 10041321
18:00+13з598886 2.1 10051042
21:00+10з4109431 2.9 1005515